Hebron, KY

9:39 PM EST on February 07, 2016 (GMT -0500)
Cincinnati-Northern KY International

Weather History for KCVG - April, 2013

Change the Weather History Date:

Monday, April 22, 2013

  Actual Average Record
Temperature  
Mean Temperature 55 °F 56 °F  
Max Temperature 69 °F 67 °F 86 °F (1985)
Min Temperature 40 °F 46 °F 28 °F (1986)
Degree Days  
Heating Degree Days 10 9  
Month to date heating degree days 244 277  
Since 1 July heating degree days 4809 4770  
Cooling Degree Days 0 1  
Month to date cooling degree days 23 10  
Year to date cooling degree days 23 10  
Growing Degree Days 4 (Base 50)    
Moisture  
Dew Point 34 °F    
Average Humidity 45    
Maximum Humidity 57    
Minimum Humidity 32    
Precipitation  
Precipitation 0.00 in 0.13 in 1.76 in (1887)
Month to date precipitation 2.32 2.80  
Year to date precipitation 11.83 12.57  
Snow  
Snow 0.00 in 0.00 in 0.10 in (1893)
Month to date snowfall T 0.5  
Since 1 July snowfall 25.2 22.1  
Snow Depth 0.00 in    
Sea Level Pressure  
Sea Level Pressure 30.24 in    
Wind  
Wind Speed 4 mph (ESE)    
Max Wind Speed 14 mph    
Max Gust Speed 17 mph    
Visibility 10 miles    
Events      
T = Trace of Precipitation, MM = Missing Value Source: NWS Daily Summary

Daily Weather History Graph

Daily Weather History Graph

Search for Another Location

Airport or City:

Trip Planner

Search our weather history database for the weather conditions in past years. The results will help you decide how hot, cold, wet, or windy it might be!

Date:

Astronomy

Apr. 22, 2013 Rise Set
Actual Time 6:51 AM EDT 8:23 PM EDT
Civil Twilight 6:23 AM EDT 8:51 PM EDT
Nautical Twilight 5:49 AM EDT 9:25 PM EDT
Astronomical Twilight 5:14 AM EDT 10:01 PM EDT
Moon 5:12 PM EDT (4/22) 4:44 AM EDT (4/22)
Length of Visible Light 14h 27m
Length of Day
13h 31m
Waxing Gibbous, 87% of the Moon is Illuminated
Apr 22
Waxing Gibbous
Apr 25
Full
May 2
Last Quarter
May 9
New
May 18
First Quarter

Hourly Weather History & Observations

Time (EDT) Temp. Windchill Dew Point Humidity Pressure Visibility Wind Dir Wind Speed Gust Speed Precip Events Conditions
12:52 AM 46.9 °F - 27.0 °F 46% 30.36 in 10.0 mi ENE 8.1 mph - N/A   Scattered Clouds
1:52 AM 43.0 °F 38.8 °F 28.0 °F 56% 30.35 in 10.0 mi East 6.9 mph - N/A   Partly Cloudy
2:52 AM 44.1 °F 40.1 °F 28.0 °F 53% 30.33 in 10.0 mi ENE 6.9 mph - N/A   Clear
3:52 AM 42.1 °F 40.2 °F 28.9 °F 60% 30.31 in 10.0 mi NE 3.5 mph - N/A   Clear
4:52 AM 44.1 °F 39.5 °F 28.9 °F 55% 30.29 in 10.0 mi ENE 8.1 mph - N/A   Clear
5:52 AM 41.0 °F 36.4 °F 27.0 °F 57% 30.30 in 10.0 mi East 6.9 mph - N/A   Clear
6:52 AM 41.0 °F 38.0 °F 26.1 °F 55% 30.30 in 10.0 mi East 4.6 mph - N/A   Clear
7:52 AM 42.8 °F 40.1 °F 28.4 °F 57% 30.31 in 10.0 mi ENE 4.6 mph - N/A   Partly Cloudy
8:52 AM 48.9 °F - 28.0 °F 44% 30.31 in 10.0 mi ESE 9.2 mph - N/A   Partly Cloudy
9:52 AM 52.0 °F - 32.0 °F 47% 30.30 in 10.0 mi ESE 4.6 mph - N/A   Partly Cloudy
10:52 AM 57.0 °F - 35.1 °F 44% 30.30 in 10.0 mi SSE 4.6 mph - N/A   Clear
11:52 AM 61.0 °F - 36.0 °F 39% 30.30 in 10.0 mi SE 3.5 mph - N/A   Clear
12:52 PM 64.0 °F - 36.0 °F 35% 30.27 in 10.0 mi Calm Calm - N/A   Partly Cloudy
1:52 PM 66.0 °F - 39.0 °F 37% 30.24 in 10.0 mi South 4.6 mph - N/A   Partly Cloudy
2:52 PM 66.0 °F - 37.0 °F 34% 30.21 in 10.0 mi Calm Calm - N/A   Partly Cloudy
3:52 PM 68.0 °F - 37.9 °F 33% 30.19 in 10.0 mi Variable 3.5 mph - N/A   Partly Cloudy
4:52 PM 68.0 °F - 37.0 °F 32% 30.16 in 10.0 mi East 4.6 mph - N/A   Partly Cloudy
5:52 PM 69.1 °F - 39.0 °F 33% 30.15 in 10.0 mi Calm Calm - N/A   Partly Cloudy
6:52 PM 66.0 °F - 39.9 °F 38% 30.14 in 10.0 mi South 5.8 mph - N/A   Partly Cloudy
7:52 PM 61.0 °F - 43.0 °F 52% 30.14 in 10.0 mi South 8.1 mph - N/A   Scattered Clouds
8:52 PM 59.0 °F - 39.9 °F 49% 30.14 in 10.0 mi SSE 8.1 mph - N/A   Clear
9:52 PM 57.9 °F - 39.9 °F 51% 30.14 in 10.0 mi SSE 5.8 mph - N/A   Clear
10:52 PM 57.0 °F - 39.9 °F 53% 30.14 in 10.0 mi Calm Calm - N/A   Clear
11:52 PM 57.0 °F - 39.9 °F 53% 30.14 in 10.0 mi Calm Calm - N/A   Clear